Time,TemperatureF,DewpointF,PressureIn,WindDirection,WindDirectionDegrees,WindSpeedMPH,WindSpeedGustMPH,Humidity,HourlyPrecipIn,Conditions,Clouds,dailyrainin,SolarRadiationWatts/m^2,SoftwareType,DateUTC
2013-01-26 00:00:00,0.0,0.0,29.98,North,0,0.0,0.0,0,0.00,,,0.00,0.00,VWS V14.01,2013-01-26 05:00:00,
2013-01-26 00:10:00,0.0,0.0,29.98,North,0,0.0,0.0,0,0.00,,,0.00,0.00,VWS V14.01,2013-01-26 05:10:00,
2013-01-26 00:20:00,0.0,0.0,29.98,North,0,0.0,0.0,0,0.00,,,0.00,0.00,VWS V14.01,2013-01-26 05:20:00,
2013-01-26 00:30:00,0.0,0.0,29.98,North,0,0.0,0.0,0,0.00,,,0.00,0.00,VWS V14.01,2013-01-26 05:30:00,
2013-01-26 00:40:00,0.0,0.0,29.98,North,0,0.0,0.0,0,0.00,,,0.00,0.00,VWS V14.01,2013-01-26 05:40:00,
2013-01-26 00:50:00,0.0,0.0,29.98,North,0,0.0,0.0,0,0.00,,,0.00,0.00,VWS V14.01,2013-01-26 05:50:00,
2013-01-26 01:00:00,0.0,0.0,29.98,North,0,0.0,0.0,0,0.00,,,0.00,0.00,VWS V14.01,2013-01-26 06:00:00,
2013-01-26 01:10:00,0.0,0.0,29.98,North,0,0.0,0.0,0,0.00,,,0.00,0.00,VWS V14.01,2013-01-26 06:10:00,
2013-01-26 01:20:00,0.0,0.0,29.98,North,0,0.0,0.0,0,0.00,,,0.00,0.00,VWS V14.01,2013-01-26 06:20:00,
2013-01-26 01:30:00,0.0,0.0,29.98,North,0,0.0,0.0,0,0.00,,,0.00,0.00,VWS V14.01,2013-01-26 06:30:00,
2013-01-26 01:40:00,0.0,0.0,29.98,North,0,0.0,0.0,0,0.00,,,0.00,0.00,VWS V14.01,2013-01-26 06:40:00,
2013-01-26 01:50:00,0.0,0.0,29.98,North,0,0.0,0.0,0,0.00,,,0.00,0.00,VWS V14.01,2013-01-26 06:50:00,
2013-01-26 02:00:00,0.0,0.0,29.99,North,0,0.0,0.0,0,0.00,,,0.00,0.00,VWS V14.01,2013-01-26 07:00:00,
2013-01-26 02:10:00,0.0,0.0,29.99,North,0,0.0,0.0,0,0.00,,,0.00,0.00,VWS V14.01,2013-01-26 07:10:00,
2013-01-26 02:20:00,0.0,0.0,29.99,North,0,0.0,0.0,0,0.00,,,0.00,0.00,VWS V14.01,2013-01-26 07:20:00,
2013-01-26 02:30:00,0.0,0.0,29.99,North,0,0.0,0.0,0,0.00,,,0.00,0.00,VWS V14.01,2013-01-26 07:30:00,
2013-01-26 02:40:00,0.0,0.0,29.99,North,0,0.0,0.0,0,0.00,,,0.00,0.00,VWS V14.01,2013-01-26 07:40:00,
2013-01-26 02:50:00,0.0,0.0,30.00,North,0,0.0,0.0,0,0.00,,,0.00,0.00,VWS V14.01,2013-01-26 07:50:00,
2013-01-26 03:00:00,0.0,0.0,30.00,North,0,0.0,0.0,0,0.00,,,0.00,0.00,VWS V14.01,2013-01-26 08:00:00,
2013-01-26 03:10:00,0.0,0.0,30.00,North,0,0.0,0.0,0,0.00,,,0.00,0.00,VWS V14.01,2013-01-26 08:10:00,
2013-01-26 03:20:00,0.0,0.0,30.00,North,0,0.0,0.0,0,0.00,,,0.00,0.00,VWS V14.01,2013-01-26 08:20:00,
2013-01-26 03:30:00,0.0,0.0,30.00,North,0,0.0,0.0,0,0.00,,,0.00,0.00,VWS V14.01,2013-01-26 08:30:00,
2013-01-26 03:40:00,0.0,0.0,30.00,North,0,0.0,0.0,0,0.00,,,0.00,0.00,VWS V14.01,2013-01-26 08:40:00,
2013-01-26 03:50:00,0.0,0.0,30.00,North,0,0.0,0.0,0,0.00,,,0.00,0.00,VWS V14.01,2013-01-26 08:50:00,
2013-01-26 04:00:00,0.0,0.0,30.01,North,0,0.0,0.0,0,0.00,,,0.00,0.00,VWS V14.01,2013-01-26 09:00:00,
2013-01-26 04:10:00,0.0,0.0,30.01,North,0,0.0,0.0,0,0.00,,,0.00,0.00,VWS V14.01,2013-01-26 09:10:00,
2013-01-26 04:20:00,0.0,0.0,30.01,North,0,0.0,0.0,0,0.00,,,0.00,0.00,VWS V14.01,2013-01-26 09:20:00,
2013-01-26 04:30:00,0.0,0.0,30.01,North,0,0.0,0.0,0,0.00,,,0.00,0.00,VWS V14.01,2013-01-26 09:30:00,
2013-01-26 04:40:00,0.0,0.0,30.01,North,0,0.0,0.0,0,0.00,,,0.00,0.00,VWS V14.01,2013-01-26 09:40:00,
2013-01-26 04:50:00,0.0,0.0,30.01,North,0,0.0,0.0,0,0.00,,,0.00,0.00,VWS V14.01,2013-01-26 09:50:00,
2013-01-26 05:00:00,0.0,0.0,30.01,North,0,0.0,0.0,0,0.00,,,0.00,0.00,VWS V14.01,2013-01-26 10:00:00,
2013-01-26 05:10:00,0.0,0.0,30.01,North,0,0.0,0.0,0,0.00,,,0.00,0.00,VWS V14.01,2013-01-26 10:10:00,
2013-01-26 05:20:00,0.0,0.0,30.02,North,0,0.0,0.0,0,0.00,,,0.00,0.00,VWS V14.01,2013-01-26 10:20:00,
2013-01-26 05:30:00,0.0,0.0,30.02,North,0,0.0,0.0,0,0.00,,,0.00,0.00,VWS V14.01,2013-01-26 10:30:00,
2013-01-26 05:40:00,0.0,0.0,30.02,North,0,0.0,0.0,0,0.00,,,0.00,0.00,VWS V14.01,2013-01-26 10:40:00,
2013-01-26 05:50:00,0.0,0.0,30.02,North,0,0.0,0.0,0,0.00,,,0.00,0.00,VWS V14.01,2013-01-26 10:50:00,
2013-01-26 06:00:00,0.0,0.0,30.03,North,0,0.0,0.0,0,0.00,,,0.00,0.00,VWS V14.01,2013-01-26 11:00:00,
2013-01-26 06:10:00,0.0,0.0,30.03,North,0,0.0,0.0,0,0.00,,,0.00,0.00,VWS V14.01,2013-01-26 11:10:00,
2013-01-26 06:20:00,0.0,0.0,30.03,North,0,0.0,0.0,0,0.00,,,0.00,0.00,VWS V14.01,2013-01-26 11:20:00,
2013-01-26 06:30:00,0.0,0.0,30.04,North,0,0.0,0.0,0,0.00,,,0.00,0.00,VWS V14.01,2013-01-26 11:30:00,
2013-01-26 06:40:00,0.0,0.0,30.04,North,0,0.0,0.0,0,0.00,,,0.00,0.00,VWS V14.01,2013-01-26 11:40:00,
2013-01-26 06:50:00,0.0,0.0,30.04,North,0,0.0,0.0,0,0.00,,,0.00,0.00,VWS V14.01,2013-01-26 11:50:00,
2013-01-26 07:00:00,0.0,0.0,30.05,North,0,0.0,0.0,0,0.00,,,0.00,0.00,VWS V14.01,2013-01-26 12:00:00,
2013-01-26 07:10:00,0.0,0.0,30.05,North,0,0.0,0.0,0,0.00,,,0.00,0.00,VWS V14.01,2013-01-26 12:10:00,
2013-01-26 07:20:00,0.0,0.0,30.06,North,0,0.0,0.0,0,0.00,,,0.00,0.00,VWS V14.01,2013-01-26 12:20:00,
2013-01-26 07:30:00,0.0,0.0,30.06,North,0,0.0,0.0,0,0.00,,,0.00,0.00,VWS V14.01,2013-01-26 12:30:00,
2013-01-26 07:40:00,0.0,0.0,30.06,North,0,0.0,0.0,0,0.00,,,0.00,0.00,VWS V14.01,2013-01-26 12:40:00,
2013-01-26 07:50:00,0.0,0.0,30.07,North,0,0.0,0.0,0,0.00,,,0.00,0.00,VWS V14.01,2013-01-26 12:50:00,
2013-01-26 08:00:00,0.0,0.0,30.08,North,0,0.0,0.0,0,0.00,,,0.00,0.00,VWS V14.01,2013-01-26 13:00:00,
2013-01-26 08:10:00,0.0,0.0,30.08,North,0,0.0,0.0,0,0.00,,,0.00,0.00,VWS V14.01,2013-01-26 13:10:00,
2013-01-26 08:20:00,0.0,0.0,30.09,North,0,0.0,0.0,0,0.00,,,0.00,0.00,VWS V14.01,2013-01-26 13:20:00,
2013-01-26 08:30:00,0.0,0.0,30.09,North,0,0.0,0.0,0,0.00,,,0.00,0.00,VWS V14.01,2013-01-26 13:30:00,
2013-01-26 08:40:00,0.0,0.0,30.09,North,0,0.0,0.0,0,0.00,,,0.00,0.00,VWS V14.01,2013-01-26 13:40:00,
2013-01-26 08:50:00,0.0,0.0,30.10,North,0,0.0,0.0,0,0.00,,,0.00,0.00,VWS V14.01,2013-01-26 13:50:00,
2013-01-26 09:00:00,0.0,0.0,30.11,North,0,0.0,0.0,0,0.00,,,0.00,0.00,VWS V14.01,2013-01-26 14:00:00,
2013-01-26 09:10:00,0.0,0.0,30.11,North,0,0.0,0.0,0,0.00,,,0.00,0.00,VWS V14.01,2013-01-26 14:10:00,
2013-01-26 09:20:00,0.0,0.0,30.10,North,0,0.0,0.0,0,0.00,,,0.00,0.00,VWS V14.01,2013-01-26 14:20:00,
2013-01-26 09:30:00,0.0,0.0,30.10,North,0,0.0,0.0,0,0.00,,,0.00,0.00,VWS V14.01,2013-01-26 14:30:00,
2013-01-26 09:40:00,0.0,0.0,30.10,North,0,0.0,0.0,0,0.00,,,0.00,0.00,VWS V14.01,2013-01-26 14:40:00,
2013-01-26 09:50:00,0.0,0.0,30.11,North,0,0.0,0.0,0,0.00,,,0.00,0.00,VWS V14.01,2013-01-26 14:50:00,
2013-01-26 10:00:00,23.7,19.0,30.19,SW,225,0.0,3.0,82,0.00,,,0.00,63.00,VWS V14.01,2013-01-26 15:00:00,
2013-01-26 10:10:00,24.1,19.1,30.19,WNW,292,0.0,6.0,81,0.00,,,0.00,61.00,VWS V14.01,2013-01-26 15:10:00,
2013-01-26 10:20:00,23.8,18.2,30.19,WNW,292,1.0,8.0,79,0.00,,,0.00,66.00,VWS V14.01,2013-01-26 15:20:00,
2013-01-26 10:30:00,24.1,18.5,30.20,WSW,248,1.0,6.0,79,0.00,,,0.00,84.00,VWS V14.01,2013-01-26 15:30:00,
2013-01-26 10:40:00,24.9,18.4,30.20,NW,315,1.0,6.0,76,0.00,,,0.00,82.00,VWS V14.01,2013-01-26 15:40:00,
2013-01-26 10:50:00,24.8,18.3,30.21,WNW,292,2.0,10.0,76,0.00,,,0.00,66.00,VWS V14.01,2013-01-26 15:50:00,
2013-01-26 11:00:00,24.5,18.0,30.22,NW,315,2.0,8.0,76,0.00,,,0.00,63.00,VWS V14.01,2013-01-26 16:00:00,
2013-01-26 11:10:00,24.5,18.3,30.22,WNW,292,1.0,8.0,77,0.00,,,0.00,66.00,VWS V14.01,2013-01-26 16:10:00,
2013-01-26 11:20:00,24.9,18.7,30.22,WNW,292,1.0,7.0,77,0.00,,,0.00,72.00,VWS V14.01,2013-01-26 16:20:00,
2013-01-26 11:30:00,25.2,18.4,30.22,WNW,292,1.0,5.0,75,0.00,,,0.00,78.00,VWS V14.01,2013-01-26 16:30:00,
2013-01-26 11:40:00,25.2,18.4,30.22,WNW,292,1.0,8.0,75,0.00,,,0.00,63.00,VWS V14.01,2013-01-26 16:40:00,
2013-01-26 11:50:00,24.8,18.0,30.23,WNW,292,1.0,5.0,75,0.00,,,0.00,54.00,VWS V14.01,2013-01-26 16:50:00,
2013-01-26 12:00:00,24.4,17.9,30.25,WNW,292,3.0,11.0,76,0.00,,,0.00,68.00,VWS V14.01,2013-01-26 17:00:00,
2013-01-26 12:10:00,24.4,17.6,30.25,NW,315,3.0,13.0,75,0.00,,,0.00,74.00,VWS V14.01,2013-01-26 17:10:00,
2013-01-26 12:20:00,24.5,17.7,30.25,WNW,292,2.0,8.0,75,0.00,,,0.00,74.00,VWS V14.01,2013-01-26 17:20:00,
2013-01-26 12:30:00,24.4,17.6,30.25,WNW,292,3.0,11.0,75,0.00,,,0.00,80.00,VWS V14.01,2013-01-26 17:30:00,
2013-01-26 12:40:00,24.3,17.5,30.25,WNW,292,3.0,12.0,75,0.00,,,0.00,80.00,VWS V14.01,2013-01-26 17:40:00,
2013-01-26 12:50:00,24.3,17.2,30.25,WNW,292,2.0,8.0,74,0.00,,,0.00,92.00,VWS V14.01,2013-01-26 17:50:00,
2013-01-26 13:00:00,24.7,17.3,30.25,WNW,292,1.0,11.0,73,0.00,,,0.00,105.00,VWS V14.01,2013-01-26 18:00:00,
2013-01-26 13:10:00,24.9,17.2,30.25,WNW,292,2.0,8.0,72,0.00,,,0.00,95.00,VWS V14.01,2013-01-26 18:10:00,
2013-01-26 13:20:00,24.7,17.3,30.25,WNW,292,2.0,10.0,73,0.00,,,0.00,85.00,VWS V14.01,2013-01-26 18:20:00,
2013-01-26 13:30:00,24.5,17.1,30.26,WNW,292,1.0,10.0,73,0.00,,,0.00,95.00,VWS V14.01,2013-01-26 18:30:00,
2013-01-26 13:40:00,24.7,17.0,30.26,WNW,292,2.0,12.0,72,0.00,,,0.00,164.00,VWS V14.01,2013-01-26 18:40:00,
2013-01-26 13:50:00,24.8,16.8,30.26,WNW,292,2.0,8.0,71,0.00,,,0.00,193.00,VWS V14.01,2013-01-26 18:50:00,
2013-01-26 14:00:00,24.9,17.2,30.26,NW,315,1.0,7.0,72,0.00,,,0.00,181.00,VWS V14.01,2013-01-26 19:00:00,
2013-01-26 14:10:00,25.1,17.4,30.26,WNW,292,2.0,7.0,72,0.00,,,0.00,162.00,VWS V14.01,2013-01-26 19:10:00,
2013-01-26 14:20:00,24.8,16.8,30.26,WNW,292,2.0,9.0,71,0.00,,,0.00,151.00,VWS V14.01,2013-01-26 19:20:00,
2013-01-26 14:30:00,25.0,17.3,30.26,WNW,292,1.0,6.0,72,0.00,,,0.00,121.00,VWS V14.01,2013-01-26 19:30:00,
2013-01-26 14:40:00,25.1,17.4,30.26,NW,315,1.0,7.0,72,0.00,,,0.00,145.00,VWS V14.01,2013-01-26 19:40:00,
2013-01-26 14:50:00,24.9,17.2,30.27,NW,315,1.0,7.0,72,0.00,,,0.00,137.00,VWS V14.01,2013-01-26 19:50:00,
2013-01-26 15:00:00,24.8,17.1,30.28,WNW,292,1.0,8.0,72,0.00,,,0.00,121.00,VWS V14.01,2013-01-26 20:00:00,
2013-01-26 15:10:00,24.7,17.0,30.28,WNW,292,2.0,10.0,72,0.00,,,0.00,131.00,VWS V14.01,2013-01-26 20:10:00,
2013-01-26 15:20:00,24.7,17.0,30.29,WNW,292,1.0,7.0,72,0.00,,,0.00,137.00,VWS V14.01,2013-01-26 20:20:00,
2013-01-26 15:30:00,25.0,16.9,30.30,NW,315,1.0,6.0,71,0.00,,,0.00,130.00,VWS V14.01,2013-01-26 20:30:00,
2013-01-26 15:40:00,24.8,17.1,30.30,WNW,292,1.0,7.0,72,0.00,,,0.00,136.00,VWS V14.01,2013-01-26 20:40:00,
2013-01-26 15:50:00,24.9,16.8,30.30,WNW,292,0.0,5.0,71,0.00,,,0.00,125.00,VWS V14.01,2013-01-26 20:50:00,
2013-01-26 16:00:00,24.9,16.8,30.30,WNW,292,0.0,6.0,71,0.00,,,0.00,110.00,VWS V14.01,2013-01-26 21:00:00,
2013-01-26 16:10:00,25.0,16.9,30.30,WSW,248,0.0,2.0,71,0.00,,,0.00,86.00,VWS V14.01,2013-01-26 21:10:00,
2013-01-26 16:20:00,24.9,16.8,30.30,West,270,0.0,5.0,71,0.00,,,0.00,95.00,VWS V14.01,2013-01-26 21:20:00,
2013-01-26 16:30:00,24.8,16.1,30.31,WNW,292,1.0,6.0,69,0.00,,,0.00,84.00,VWS V14.01,2013-01-26 21:30:00,
2013-01-26 16:40:00,24.7,16.3,30.31,WNW,292,1.0,7.0,70,0.00,,,0.00,59.00,VWS V14.01,2013-01-26 21:40:00,
2013-01-26 16:50:00,24.5,16.1,30.32,WNW,292,1.0,7.0,70,0.00,,,0.00,51.00,VWS V14.01,2013-01-26 21:50:00,
2013-01-26 17:00:00,24.4,16.0,30.32,WNW,292,1.0,6.0,70,0.00,,,0.00,38.00,VWS V14.01,2013-01-26 22:00:00,
2013-01-26 17:10:00,24.1,15.4,30.32,NW,315,1.0,6.0,69,0.00,,,0.00,35.00,VWS V14.01,2013-01-26 22:10:00,
2013-01-26 17:20:00,23.9,15.2,30.33,WNW,292,1.0,5.0,69,0.00,,,0.00,22.00,VWS V14.01,2013-01-26 22:20:00,
2013-01-26 17:30:00,23.7,15.4,30.34,NW,315,0.0,3.0,70,0.00,,,0.00,11.00,VWS V14.01,2013-01-26 22:30:00,
2013-01-26 17:40:00,23.4,15.1,30.34,WNW,292,0.0,5.0,70,0.00,,,0.00,1.00,VWS V14.01,2013-01-26 22:40:00,
2013-01-26 17:50:00,23.3,15.0,30.35,WNW,292,0.0,2.0,70,0.00,,,0.00,0.00,VWS V14.01,2013-01-26 22:50:00,
2013-01-26 18:00:00,23.2,14.9,30.35,WNW,292,0.0,0.0,70,0.00,,,0.00,0.00,VWS V14.01,2013-01-26 23:00:00,
2013-01-26 18:10:00,23.0,15.0,30.35,WNW,292,0.0,0.0,71,0.00,,,0.00,0.00,VWS V14.01,2013-01-26 23:10:00,
2013-01-26 18:20:00,22.9,15.2,30.35,WNW,292,0.0,0.0,72,0.00,,,0.00,0.00,VWS V14.01,2013-01-26 23:20:00,
2013-01-26 18:30:00,22.9,15.2,30.29,WNW,292,0.0,0.0,72,0.00,,,0.00,0.00,VWS V14.01,2013-01-26 23:30:00,
2013-01-26 18:40:00,22.9,15.2,30.29,WNW,292,0.0,0.0,72,0.00,,,0.00,0.00,VWS V14.01,2013-01-26 23:40:00,
2013-01-26 18:50:00,22.9,15.2,30.30,WNW,292,0.0,0.0,72,0.00,,,0.00,0.00,VWS V14.01,2013-01-26 23:50:00,
2013-01-26 19:00:00,22.9,15.2,30.31,WNW,292,0.0,0.0,72,0.00,,,0.00,0.00,VWS V14.01,2013-01-27 00:00:00,
2013-01-26 19:10:00,22.9,15.2,30.31,WNW,292,0.0,0.0,72,0.00,,,0.00,0.00,VWS V14.01,2013-01-27 00:10:00,
2013-01-26 19:20:00,22.9,15.2,30.32,WNW,292,0.0,0.0,72,0.00,,,0.00,0.00,VWS V14.01,2013-01-27 00:20:00,
2013-01-26 19:30:00,22.9,15.2,30.32,WNW,292,0.0,0.0,72,0.00,,,0.00,0.00,VWS V14.01,2013-01-27 00:30:00,
2013-01-26 19:40:00,22.9,15.2,30.32,WNW,292,0.0,0.0,72,0.00,,,0.00,0.00,VWS V14.01,2013-01-27 00:40:00,
2013-01-26 19:50:00,22.9,15.2,30.33,WNW,292,0.0,0.0,72,0.00,,,0.00,0.00,VWS V14.01,2013-01-27 00:50:00,
2013-01-26 20:00:00,22.9,15.2,30.33,WNW,292,0.0,0.0,72,0.00,,,0.00,0.00,VWS V14.01,2013-01-27 01:00:00,
2013-01-26 20:10:00,22.9,15.2,30.33,WNW,292,0.0,0.0,72,0.00,,,0.00,0.00,VWS V14.01,2013-01-27 01:10:00,
2013-01-26 20:32:00,22.9,15.2,30.33,WNW,292,0.0,0.0,72,0.00,,,0.00,0.00,VWS V14.01,2013-01-27 01:32:00,
2013-01-26 20:37:00,22.2,14.6,30.39,SSW,202,0.0,0.0,72,0.00,,,0.00,0.00,VWS V14.01,2013-01-27 01:37:00,
2013-01-26 20:42:00,22.1,14.5,30.39,SSW,202,0.0,0.0,72,0.00,,,0.00,0.00,VWS V14.01,2013-01-27 01:42:00,
2013-01-26 20:47:00,22.1,14.5,30.39,SSW,202,0.0,0.0,72,0.00,,,0.00,0.00,VWS V14.01,2013-01-27 01:47:00,
2013-01-26 20:52:00,22.1,14.5,30.39,SSW,202,0.0,0.0,72,0.00,,,0.00,0.00,VWS V14.01,2013-01-27 01:52:00,
2013-01-26 20:57:00,21.9,14.3,30.39,SSW,202,0.0,0.0,72,0.00,,,0.00,0.00,VWS V14.01,2013-01-27 01:57:00,
2013-01-26 21:02:00,21.9,14.6,30.39,SSW,202,0.0,0.0,73,0.00,,OVC043,0.00,0.00,VWS V14.01,2013-01-27 02:02:00,
2013-01-26 21:07:00,21.8,14.5,30.39,SSW,202,0.0,0.0,73,0.00,,OVC043,0.00,0.00,VWS V14.01,2013-01-27 02:07:00,
2013-01-26 21:12:00,21.8,14.5,30.39,SSW,202,0.0,0.0,73,0.00,,OVC043,0.00,0.00,VWS V14.01,2013-01-27 02:12:00,
2013-01-26 21:17:00,21.6,14.3,30.39,SSW,202,0.0,0.0,73,0.00,,OVC043,0.00,0.00,VWS V14.01,2013-01-27 02:17:00,
2013-01-26 21:22:00,21.6,14.3,30.39,SSW,202,0.0,0.0,73,0.00,,OVC043,0.00,0.00,VWS V14.01,2013-01-27 02:22:00,
2013-01-26 21:27:00,21.6,14.3,30.39,SSW,202,0.0,0.0,73,0.00,,OVC043,0.00,0.00,VWS V14.01,2013-01-27 02:27:00,
2013-01-26 21:32:00,21.6,14.3,30.39,SSW,202,0.0,0.0,73,0.00,,OVC043,0.00,0.00,VWS V14.01,2013-01-27 02:32:00,
2013-01-26 21:37:00,21.6,14.3,30.39,SSW,202,0.0,0.0,73,0.00,,OVC043,0.00,0.00,VWS V14.01,2013-01-27 02:37:00,
2013-01-26 21:42:00,21.6,14.3,30.39,SSW,202,0.0,0.0,73,0.00,,OVC043,0.00,0.00,VWS V14.01,2013-01-27 02:42:00,
2013-01-26 21:47:00,21.6,14.3,30.39,SSW,202,0.0,0.0,73,0.00,,OVC043,0.00,0.00,VWS V14.01,2013-01-27 02:47:00,
2013-01-26 21:52:00,21.6,14.3,30.39,SSW,202,0.0,0.0,73,0.00,,OVC043,0.00,0.00,VWS V14.01,2013-01-27 02:52:00,
2013-01-26 21:57:00,21.6,14.3,30.39,SSW,202,0.0,0.0,73,0.00,,OVC043,0.00,0.00,VWS V14.01,2013-01-27 02:57:00,
2013-01-26 22:02:00,21.6,14.3,30.39,SSW,202,0.0,0.0,73,0.00,,OVC042,0.00,0.00,VWS V14.01,2013-01-27 03:02:00,
2013-01-26 22:07:00,21.6,14.3,30.39,SSW,202,0.0,0.0,73,0.00,,OVC042,0.00,0.00,VWS V14.01,2013-01-27 03:07:00,
2013-01-26 22:12:00,21.6,14.3,30.39,SSW,202,0.0,0.0,73,0.00,,OVC042,0.00,0.00,VWS V14.01,2013-01-27 03:12:00,
2013-01-26 22:17:00,21.6,14.3,30.40,SSW,202,0.0,0.0,73,0.00,,OVC042,0.00,0.00,VWS V14.01,2013-01-27 03:17:00,
2013-01-26 22:22:00,21.6,14.3,30.40,SSW,202,0.0,0.0,73,0.00,,OVC042,0.00,0.00,VWS V14.01,2013-01-27 03:22:00,
2013-01-26 22:27:00,21.6,14.3,30.40,SSW,202,0.0,0.0,73,0.00,,OVC042,0.00,0.00,VWS V14.01,2013-01-27 03:27:00,
2013-01-26 22:32:00,21.6,14.3,30.40,SSW,202,0.0,0.0,73,0.00,,OVC042,0.00,0.00,VWS V14.01,2013-01-27 03:32:00,
2013-01-26 22:37:00,21.6,14.3,30.40,SSW,202,0.0,0.0,73,0.00,,OVC042,0.00,0.00,VWS V14.01,2013-01-27 03:37:00,
2013-01-26 22:42:00,21.6,14.3,30.40,SSW,202,0.0,0.0,73,0.00,,OVC042,0.00,0.00,VWS V14.01,2013-01-27 03:42:00,
2013-01-26 22:47:00,21.6,14.3,30.40,SSW,202,0.0,0.0,73,0.00,,OVC042,0.00,0.00,VWS V14.01,2013-01-27 03:47:00,
2013-01-26 22:52:00,21.6,14.3,30.40,SSW,202,0.0,0.0,73,0.00,,OVC042,0.00,0.00,VWS V14.01,2013-01-27 03:52:00,
2013-01-26 22:57:00,21.6,14.3,30.40,SSW,202,0.0,0.0,73,0.00,,OVC042,0.00,0.00,VWS V14.01,2013-01-27 03:57:00,
2013-01-26 23:02:00,21.6,14.3,30.42,SSW,202,0.0,0.0,73,0.00,,BKN041,0.00,0.00,VWS V14.01,2013-01-27 04:02:00,
2013-01-26 23:07:00,21.6,14.3,30.42,SSW,202,0.0,0.0,73,0.00,,BKN041,0.00,0.00,VWS V14.01,2013-01-27 04:07:00,
2013-01-26 23:12:00,21.6,14.3,30.42,SSW,202,0.0,0.0,73,0.00,,BKN041,0.00,0.00,VWS V14.01,2013-01-27 04:12:00,
2013-01-26 23:17:00,21.6,14.3,30.41,SSW,202,0.0,0.0,73,0.00,,BKN041,0.00,0.00,VWS V14.01,2013-01-27 04:17:00,
2013-01-26 23:22:00,21.6,14.3,30.41,SSW,202,0.0,0.0,73,0.00,,BKN041,0.00,0.00,VWS V14.01,2013-01-27 04:22:00,
2013-01-26 23:27:00,21.6,14.3,30.41,SSW,202,0.0,0.0,73,0.00,,BKN041,0.00,0.00,VWS V14.01,2013-01-27 04:27:00,
2013-01-26 23:32:00,21.6,14.3,30.41,SSW,202,0.0,0.0,73,0.00,,BKN041,0.00,0.00,VWS V14.01,2013-01-27 04:32:00,
2013-01-26 23:37:00,21.6,14.3,30.41,SSW,202,0.0,0.0,73,0.00,,BKN041,0.00,0.00,VWS V14.01,2013-01-27 04:37:00,
2013-01-26 23:42:00,21.6,14.3,30.41,SSW,202,0.0,0.0,73,0.00,,BKN041,0.00,0.00,VWS V14.01,2013-01-27 04:42:00,
2013-01-26 23:47:00,21.6,14.3,30.41,SSW,202,0.0,0.0,73,0.00,,BKN041,0.00,0.00,VWS V14.01,2013-01-27 04:47:00,
2013-01-26 23:52:00,21.6,14.3,30.41,SSW,202,0.0,0.0,73,0.00,,BKN041,0.00,0.00,VWS V14.01,2013-01-27 04:52:00,
2013-01-26 23:57:00,21.6,14.3,30.41,SSW,202,0.0,0.0,73,0.00,,BKN041,0.00,0.00,VWS V14.01,2013-01-27 04:57:00,